| time (UTC) | temp F | wind direction | speed MPH | gust MPH | rain 1hr in | rain 24hr in | rain mn in | humidity % | barometer mb |
| 20260508151720 | 70 | 63 | 2.0 | 4.0 | 0.00 | 0.58 | 0.00 | 84 | 1015.1 |
| 20260508151220 | 69 | 96 | 2.0 | 5.0 | 0.00 | 0.58 | 0.00 | 84 | 1015.1 |
| 20260508150718 | 69 | 78 | 2.0 | 5.0 | 0.00 | 0.58 | 0.00 | 84 | 1015.1 |
| 20260508150448 | 69 | 77 | 1.0 | 5.0 | 0.00 | 0.58 | 0.00 | 84 | 1015.2 |
| 20260508145718 | 68 | 67 | 2.0 | 5.0 | 0.00 | 0.58 | 0.00 | 84 | 1015.5 |
| 20260508145218 | 68 | 73 | 2.0 | 4.0 | 0.00 | 0.58 | 0.00 | 85 | 1015.5 |
| 20260508144715 | 68 | 82 | 2.0 | 5.0 | 0.00 | 0.61 | 0.00 | 84 | 1015.6 |
| 20260508144215 | 68 | 84 | 2.0 | 5.0 | 0.00 | 0.66 | 0.00 | 84 | 1015.5 |
| 20260508143716 | 68 | 42 | 2.0 | 6.0 | 0.00 | 0.75 | 0.00 | 84 | 1015.4 |
| 20260508143214 | 68 | 100 | 3.0 | 7.0 | 0.00 | 0.85 | 0.00 | 84 | 1015.3 |
| 20260508142713 | 68 | 75 | 3.0 | 7.0 | 0.00 | 1.00 | 0.00 | 83 | 1015.1 |
| 20260508142214 | 69 | 20 | 3.0 | 6.0 | 0.00 | 1.18 | 0.00 | 84 | 1015.1 |
| 20260508141712 | 69 | 356 | 4.0 | 6.0 | 0.00 | 1.20 | 0.00 | 83 | 1015.1 |
| 20260508141212 | 68 | 63 | 4.0 | 6.0 | 0.00 | 1.21 | 0.00 | 84 | 1014.9 |
| 20260508140711 | 68 | 68 | 3.0 | 6.0 | 0.00 | 1.21 | 0.00 | 84 | 1015.0 |
| 20260508140211 | 68 | 70 | 2.0 | 6.0 | 0.00 | 1.21 | 0.00 | 84 | 1015.0 |
| 20260508135712 | 68 | 66 | 2.0 | 5.0 | 0.00 | 1.21 | 0.00 | 85 | 1015.3 |
| 20260508135212 | 67 | 101 | 3.0 | 5.0 | 0.00 | 1.21 | 0.00 | 85 | 1015.4 |
| 20260508134711 | 67 | 107 | 2.0 | 5.0 | 0.00 | 1.21 | 0.00 | 85 | 1015.4 |
| 20260508134212 | 67 | 101 | 2.0 | 5.0 | 0.00 | 1.21 | 0.00 | 85 | 1015.4 |
| 20260508133711 | 67 | 31 | 2.0 | 7.0 | 0.00 | 1.21 | 0.00 | 86 | 1015.5 |
| 20260508133210 | 66 | 75 | 3.0 | 8.0 | 0.00 | 1.21 | 0.00 | 86 | 1015.5 |
| 20260508132941 | 66 | 44 | 3.0 | 8.0 | 0.00 | 1.21 | 0.00 | 85 | 1015.6 |
| 20260508132210 | 66 | 73 | 3.0 | 7.0 | 0.00 | 1.21 | 0.00 | 86 | 1015.6 |
| 20260508131942 | 66 | 66 | 3.0 | 8.0 | 0.00 | 1.21 | 0.00 | 86 | 1015.4 |
| 20260508131210 | 66 | 99 | 3.0 | 8.0 | 0.00 | 1.21 | 0.00 | 86 | 1015.5 |
| 20260508130710 | 66 | 75 | 3.0 | 7.0 | 0.00 | 1.21 | 0.00 | 87 | 1015.4 |
| 20260508130211 | 66 | 41 | 2.0 | 7.0 | 0.00 | 1.21 | 0.00 | 87 | 1015.7 |
| 20260508125709 | 66 | 95 | 2.0 | 6.0 | 0.00 | 1.21 | 0.00 | 87 | 1015.9 |
| 20260508125208 | 0 | 0.0 | 0.0 | 0.00 | 1.21 | 0.00 | 1016.1 | ||
| 20260508124618 | 0 | 0.0 | 0.0 | 0.00 | 1.21 | 0.00 | 1016.1 | ||
| 20260508124119 | 0 | 0.0 | 0.0 | 0.00 | 1.21 | 0.00 | 1016.1 | ||
| 20260508123615 | 0 | 0.0 | 0.0 | 0.00 | 1.21 | 0.00 | 1016.1 | ||
| 20260508123116 | 0 | 0.0 | 0.0 | 0.00 | 1.21 | 0.00 | 1016.0 | ||
| 20260508122615 | 0 | 0.0 | 0.0 | 0.00 | 1.21 | 0.00 | 1015.8 | ||
| 20260508122320 | 0 | 0.0 | 4.0 | 0.00 | 1.21 | 0.00 | 1015.0 | ||
| 20260508122218 | 0 | 0.0 | 0.0 | 0.00 | 1.21 | 0.00 | 1015.7 | ||
| 20260508122214 | 0 | 0.0 | 0.0 | 0.00 | 1.21 | 0.00 | 1014.9 | ||
| 20260508122210 | 0 | 0.0 | 0.0 | 0.00 | 1.21 | 0.00 | 1014.5 | ||
| 20260508122206 | 0 | 0.0 | 0.0 | 0.00 | 1.21 | 0.00 | 1014.6 | ||
| 20260508122201 | 0 | 0.0 | 0.0 | 0.00 | 1.21 | 0.00 | 1014.8 | ||
| 20260508122157 | 0 | 0.0 | 0.0 | 0.00 | 1.21 | 0.00 | 1014.8 | ||
| 20260508122153 | 0 | 0.0 | 0.0 | 0.00 | 1.21 | 0.00 | 1015.9 | ||
| 20260508122045 | 0 | 0.0 | 0.0 | 0.00 | 1.21 | 0.00 | 1015.9 | ||
| 20260508122041 | 0 | 0.0 | 0.0 | 0.00 | 1.21 | 0.00 | 1016.0 | ||
| 20260508122037 | 0 | 0.0 | 0.0 | 0.00 | 1.21 | 0.00 | 1015.9 | ||
| 20260508121928 | 0 | 0.0 | 0.0 | 0.00 | 1.21 | 0.00 | 1015.5 | ||
| 20260508121924 | 0 | 0.0 | 0.0 | 0.00 | 1.21 | 0.00 | 1015.3 | ||
| 20260508120211 | 0 | 0.0 | 0.0 | 0.00 | 1.21 | 0.00 | 1014.9 | ||
| 20260508120207 | 0 | 0.0 | 0.0 | 0.00 | 1.21 | 0.00 | 1014.7 | ||
| 20260508114454 | 0 | 0.0 | 0.0 | 0.00 | 1.21 | 0.00 | 1014.5 | ||
| 20260508114450 | 0 | 0.0 | 0.0 | 0.00 | 1.21 | 0.00 | 1014.5 | ||
| 20260508112528 | 0 | 0.0 | 0.0 | 0.00 | 1.21 | 0.00 | 1014.8 | ||
| 20260508110814 | 0 | 0.0 | 4.0 | 0.00 | 1.21 | 0.00 | 1015.0 | ||
| 20260508110311 | 0 | 51 | 2.0 | 4.0 | 0.00 | 1.21 | 0.00 | 1014.8 | |
| 20260508105750 | 0 | 51 | 2.0 | 4.0 | 0.00 | 1.21 | 0.00 | 1014.7 | |
| 20260508105247 | 64 | 51 | 2.0 | 4.0 | 0.00 | 1.21 | 0.00 | 87 | 1014.7 |
| 20260508104748 | 65 | 84 | 1.0 | 3.0 | 0.00 | 1.21 | 0.00 | 88 | 1014.7 |
| 20260508104517 | 65 | 110 | 1.0 | 3.0 | 0.00 | 1.21 | 0.00 | 88 | 1014.7 |
| 20260508104016 | 65 | 105 | 1.0 | 4.0 | 0.00 | 1.21 | 0.00 | 88 | 1014.6 |
| 20260508103514 | 65 | 48 | 2.0 | 4.0 | 0.00 | 1.21 | 0.00 | 88 | 1014.5 |
| 20260508102744 | 65 | 49 | 2.0 | 4.0 | 0.00 | 1.21 | 0.00 | 88 | 1014.5 |
| 20260508102243 | 65 | 30 | 2.0 | 4.0 | 0.00 | 1.21 | 0.00 | 88 | 1014.5 |
| 20260508101742 | 65 | 68 | 1.0 | 4.0 | 0.00 | 1.21 | 0.00 | 88 | 1014.4 |
| 20260508101241 | 65 | 74 | 2.0 | 4.0 | 0.00 | 1.21 | 0.00 | 88 | 1014.4 |
| 20260508101014 | 65 | 48 | 2.0 | 4.0 | 0.00 | 1.21 | 0.00 | 88 | 1014.3 |
| 20260508100740 | 65 | 78 | 2.0 | 4.0 | 0.00 | 1.21 | 0.00 | 88 | 1014.3 |
| 20260508100237 | 65 | 58 | 2.0 | 4.0 | 0.00 | 1.21 | 0.00 | 88 | 1014.3 |
| 20260508095238 | 65 | 37 | 2.0 | 5.0 | 0.00 | 1.21 | 0.00 | 88 | 1014.1 |
| 20260508095008 | 65 | 65 | 2.0 | 5.0 | 0.00 | 1.21 | 0.00 | 88 | 1014.1 |
| 20260508094236 | 65 | 74 | 1.0 | 5.0 | 0.00 | 1.21 | 0.00 | 89 | 1014.2 |
| 20260508093736 | 65 | 85 | 1.0 | 5.0 | 0.00 | 1.21 | 0.00 | 89 | 1014.2 |
| 20260508093234 | 65 | 60 | 1.0 | 3.0 | 0.00 | 1.21 | 0.00 | 89 | 1014.2 |
| 20260508092738 | 65 | 37 | 2.0 | 6.0 | 0.00 | 1.21 | 0.00 | 89 | 1013.9 |
| 20260508092734 | 65 | 66 | 2.0 | 5.0 | 0.00 | 1.21 | 0.00 | 89 | 1014.1 |
| 20260508091734 | 65 | 46 | 2.0 | 6.0 | 0.00 | 1.21 | 0.00 | 89 | 1013.9 |
| 20260508091234 | 65 | 45 | 2.0 | 5.0 | 0.00 | 1.21 | 0.00 | 90 | 1013.8 |
| 20260508090734 | 65 | 116 | 2.0 | 4.0 | 0.00 | 1.21 | 0.00 | 90 | 1013.9 |
| 20260508090234 | 65 | 75 | 2.0 | 4.0 | 0.00 | 1.21 | 0.00 | 90 | 1013.8 |
| 20260508085734 | 65 | 91 | 1.0 | 5.0 | 0.00 | 1.21 | 0.00 | 90 | 1013.8 |
| 20260508085234 | 65 | 103 | 2.0 | 5.0 | 0.00 | 1.21 | 0.00 | 90 | 1013.8 |
| 20260508084733 | 65 | 87 | 1.0 | 4.0 | 0.00 | 1.21 | 0.00 | 90 | 1014.1 |
| 20260508084234 | 65 | 42 | 1.0 | 3.0 | 0.00 | 1.21 | 0.00 | 90 | 1014.1 |
| 20260508083733 | 64 | 44 | 1.0 | 4.0 | 0.00 | 1.21 | 0.00 | 90 | 1013.9 |
| 20260508083504 | 65 | 53 | 1.0 | 4.0 | 0.00 | 1.21 | 0.00 | 90 | 1013.9 |
| 20260508082733 | 65 | 71 | 1.0 | 4.0 | 0.00 | 1.21 | 0.00 | 90 | 1013.7 |
| 20260508082234 | 65 | 86 | 2.0 | 6.0 | 0.00 | 1.21 | 0.00 | 90 | 1013.7 |
| 20260508081733 | 65 | 46 | 2.0 | 6.0 | 0.00 | 1.21 | 0.00 | 90 | 1013.6 |
| 20260508081504 | 65 | 44 | 2.0 | 4.0 | 0.00 | 1.21 | 0.00 | 90 | 1013.6 |
| 20260508080733 | 65 | 57 | 1.0 | 4.0 | 0.00 | 1.21 | 0.00 | 90 | 1013.8 |
| 20260508080234 | 65 | 75 | 1.0 | 5.0 | 0.00 | 1.21 | 0.00 | 90 | 1013.8 |
| 20260508075738 | 64 | 82 | 2.0 | 5.0 | 0.00 | 1.21 | 0.00 | 90 | 1013.8 |
| 20260508075733 | 65 | 41 | 2.0 | 5.0 | 0.00 | 1.21 | 0.00 | 90 | 1013.8 |
| 20260508074734 | 64 | 72 | 1.0 | 4.0 | 0.00 | 1.21 | 0.00 | 91 | 1013.8 |
| 20260508074233 | 64 | 58 | 1.0 | 3.0 | 0.00 | 1.21 | 0.00 | 91 | 1013.8 |
| 20260508073734 | 64 | 94 | 2.0 | 5.0 | 0.00 | 1.21 | 0.00 | 91 | 1013.9 |
| 20260508073233 | 64 | 56 | 2.0 | 5.0 | 0.00 | 1.21 | 0.00 | 91 | 1013.8 |
| 20260508072734 | 64 | 38 | 2.0 | 3.0 | 0.00 | 1.21 | 0.00 | 91 | 1013.9 |
| 20260508072234 | 64 | 77 | 1.0 | 2.0 | 0.00 | 1.21 | 0.00 | 91 | 1013.9 |
| 20260508071733 | 64 | 53 | 1.0 | 3.0 | 0.00 | 1.21 | 0.00 | 90 | 1014.1 |
| 20260508071234 | 64 | 79 | 1.0 | 3.0 | 0.00 | 1.21 | 0.00 | 90 | 1014.2 |
| 20260508070734 | 65 | 63 | 0.0 | 2.0 | 0.00 | 1.21 | 0.00 | 90 | 1014.2 |
| 20260508070231 | 65 | 63 | 1.0 | 3.0 | 0.00 | 1.21 | 0.00 | 90 | 1014.2 |
| 20260508065736 | 65 | 49 | 1.0 | 3.0 | 0.00 | 1.21 | 0.00 | 90 | 1014.0 |
| 20260508065732 | 65 | 62 | 1.0 | 3.0 | 0.00 | 1.21 | 0.00 | 90 | 1014.1 |
| 20260508064731 | 65 | 37 | 1.0 | 3.0 | 0.00 | 1.21 | 0.00 | 90 | 1014.1 |
| 20260508064232 | 65 | 63 | 1.0 | 3.0 | 0.00 | 1.21 | 0.00 | 90 | 1014.2 |
| 20260508063731 | 65 | 69 | 1.0 | 4.0 | 0.00 | 1.21 | 0.00 | 90 | 1014.0 |
| 20260508063502 | 65 | 340 | 2.0 | 4.0 | 0.00 | 1.21 | 0.00 | 89 | 1014.2 |
| 20260508062732 | 65 | 50 | 1.0 | 3.0 | 0.00 | 1.21 | 0.00 | 89 | 1014.3 |
| 20260508062231 | 65 | 40 | 1.0 | 4.0 | 0.00 | 1.21 | 0.00 | 89 | 1014.5 |
| 20260508061732 | 65 | 59 | 1.0 | 4.0 | 0.00 | 1.21 | 0.00 | 89 | 1014.5 |
| 20260508061231 | 65 | 56 | 1.0 | 4.0 | 0.00 | 1.21 | 0.00 | 89 | 1014.5 |
| 20260508060731 | 65 | 49 | 1.0 | 4.0 | 0.00 | 1.21 | 0.00 | 89 | 1014.7 |
| 20260508060232 | 65 | 75 | 1.0 | 3.0 | 0.00 | 1.21 | 0.00 | 89 | 1014.7 |
| 20260508055731 | 65 | 41 | 1.0 | 4.0 | 0.00 | 1.21 | 0.00 | 89 | 1014.7 |
| 20260508055232 | 65 | 53 | 1.0 | 4.0 | 0.00 | 1.21 | 0.00 | 89 | 1014.8 |
| 20260508054731 | 66 | 359 | 1.0 | 2.0 | 0.00 | 1.21 | 0.00 | 89 | 1014.8 |
| 20260508054503 | 66 | 58 | 1.0 | 4.0 | 0.00 | 1.21 | 0.00 | 89 | 1014.6 |
| 20260508054002 | 66 | 61 | 1.0 | 4.0 | 0.00 | 1.21 | 0.00 | 89 | 1014.6 |
| 20260508053231 | 66 | 93 | 1.0 | 3.0 | 0.00 | 1.21 | 0.00 | 89 | 1014.8 |
| 20260508052731 | 66 | 54 | 1.0 | 5.0 | 0.00 | 1.21 | 0.00 | 89 | 1014.7 |
| 20260508052232 | 66 | 65 | 1.0 | 5.0 | 0.00 | 1.21 | 0.00 | 89 | 1014.8 |
| 20260508051731 | 66 | 81 | 1.0 | 3.0 | 0.00 | 1.21 | 0.00 | 90 | 1014.9 |
| 20260508051231 | 66 | 58 | 1.0 | 3.0 | 0.00 | 1.21 | 0.00 | 90 | 1014.9 |
| 20260508050732 | 66 | 81 | 1.0 | 2.0 | 0.00 | 1.21 | 0.00 | 90 | 1014.8 |
| 20260508050502 | 66 | 82 | 0.0 | 2.0 | 0.00 | 1.21 | 0.00 | 90 | 1014.9 |
| 20260508045732 | 66 | 60 | 0.0 | 3.0 | 0.00 | 1.21 | 1.21 | 90 | 1014.9 |
| 20260508045230 | 66 | 65 | 1.0 | 5.0 | 0.00 | 1.21 | 1.21 | 90 | 1015.2 |
| 20260508044730 | 66 | 65 | 1.0 | 5.0 | 0.00 | 1.21 | 1.21 | 90 | 1015.3 |
| 20260508044230 | 66 | 49 | 1.0 | 3.0 | 0.00 | 1.21 | 1.21 | 90 | 1015.1 |
| 20260508043729 | 66 | 49 | 1.0 | 3.0 | 0.00 | 1.21 | 1.21 | 90 | 1014.9 |
| 20260508043230 | 66 | 316 | 0.0 | 3.0 | 0.00 | 1.21 | 1.21 | 90 | 1014.9 |
| 20260508043002 | 67 | 303 | 1.0 | 3.0 | 0.00 | 1.21 | 1.21 | 90 | 1014.8 |
| 20260508042230 | 67 | 60 | 1.0 | 3.0 | 0.00 | 1.21 | 1.21 | 90 | 1014.8 |
| 20260508041730 | 67 | 51 | 2.0 | 5.0 | 0.00 | 1.21 | 1.21 | 89 | 1014.5 |
| 20260508041230 | 67 | 60 | 2.0 | 5.0 | 0.00 | 1.21 | 1.21 | 89 | 1014.4 |
| 20260508040730 | 67 | 72 | 2.0 | 5.0 | 0.00 | 1.21 | 1.21 | 89 | 1014.6 |
| 20260508040227 | 67 | 32 | 2.0 | 6.0 | 0.00 | 1.21 | 1.21 | 89 | 1014.6 |
| 20260508035728 | 67 | 118 | 2.0 | 6.0 | 0.00 | 1.21 | 1.21 | 89 | 1014.5 |
| 20260508035228 | 67 | 56 | 3.0 | 9.0 | 0.00 | 1.21 | 1.21 | 90 | 1014.3 |
| 20260508034728 | 68 | 48 | 3.0 | 9.0 | 0.00 | 1.21 | 1.21 | 90 | 1014.4 |
| 20260508034500 | 68 | 57 | 2.0 | 7.0 | 0.00 | 1.21 | 1.21 | 90 | 1014.3 |
| 20260508033728 | 68 | 50 | 2.0 | 4.0 | 0.00 | 1.21 | 1.21 | 90 | 1014.5 |
| 20260508033228 | 68 | 330 | 2.0 | 4.0 | 0.00 | 1.21 | 1.21 | 89 | 1014.7 |
| 20260508032728 | 68 | 54 | 1.0 | 5.0 | 0.00 | 1.21 | 1.21 | 89 | 1014.8 |
| 20260508032228 | 68 | 54 | 1.0 | 6.0 | 0.00 | 1.21 | 1.21 | 89 | 1014.8 |
| 20260508031726 | 69 | 73 | 2.0 | 6.0 | 0.00 | 1.21 | 1.21 | 89 | 1015.0 |
| 20260508031226 | 69 | 27 | 1.0 | 5.0 | 0.00 | 1.21 | 1.21 | 89 | 1015.1 |
| 20260508030726 | 69 | 302 | 1.0 | 3.0 | 0.00 | 1.21 | 1.21 | 89 | 1015.1 |
| 20260508030226 | 69 | 84 | 1.0 | 5.0 | 0.00 | 1.21 | 1.21 | 88 | 1015.2 |
| 20260508025725 | 69 | 34 | 2.0 | 5.0 | 0.00 | 1.21 | 1.21 | 88 | 1015.1 |
| 20260508025226 | 69 | 77 | 2.0 | 5.0 | 0.00 | 1.21 | 1.21 | 88 | 1015.1 |
| 20260508024727 | 70 | 73 | 2.0 | 5.0 | 0.00 | 1.21 | 1.21 | 88 | 1015.2 |
| 20260508024226 | 70 | 285 | 2.0 | 4.0 | 0.00 | 1.21 | 1.21 | 88 | 1015.1 |
| 20260508023726 | 70 | 347 | 1.0 | 4.0 | 0.00 | 1.21 | 1.21 | 88 | 1014.9 |
| 20260508023225 | 70 | 81 | 1.0 | 4.0 | 0.00 | 1.21 | 1.21 | 88 | 1014.7 |
| 20260508022724 | 70 | 319 | 1.0 | 5.0 | 0.00 | 1.21 | 1.21 | 88 | 1014.8 |
| 20260508022224 | 71 | 44 | 2.0 | 5.0 | 0.00 | 1.21 | 1.21 | 88 | 1014.8 |
| 20260508021724 | 71 | 328 | 2.0 | 5.0 | 0.00 | 1.21 | 1.21 | 88 | 1014.8 |
| 20260508021229 | 71 | 30 | 1.0 | 5.0 | 0.00 | 1.21 | 1.21 | 88 | 1014.6 |
| 20260508020724 | 71 | 276 | 1.0 | 5.0 | 0.00 | 1.21 | 1.21 | 88 | 1014.5 |
| 20260508020224 | 71 | 20 | 1.0 | 5.0 | 0.00 | 1.21 | 1.21 | 88 | 1014.5 |
| 20260508015723 | 71 | 25 | 1.0 | 3.0 | 0.00 | 1.21 | 1.21 | 87 | 1014.4 |
| 20260508015224 | 72 | 73 | 1.0 | 3.0 | 0.00 | 1.21 | 1.21 | 87 | 1014.3 |
| 20260508014724 | 72 | 65 | 1.0 | 3.0 | 0.00 | 1.21 | 1.21 | 87 | 1014.1 |
| 20260508014455 | 72 | 323 | 0.0 | 1.0 | 0.00 | 1.21 | 1.21 | 87 | 1014.1 |
| 20260508013723 | 72 | 71 | 0.0 | 4.0 | 0.00 | 1.21 | 1.21 | 86 | 1014.0 |
| 20260508013222 | 72 | 71 | 0.0 | 4.0 | 0.00 | 1.21 | 1.21 | 86 | 1013.7 |
| 20260508012722 | 72 | 72 | 1.0 | 2.0 | 0.00 | 1.21 | 1.21 | 86 | 1013.6 |
| 20260508012222 | 72 | 77 | 1.0 | 3.0 | 0.00 | 1.21 | 1.21 | 86 | 1013.5 |
| 20260508011722 | 72 | 75 | 1.0 | 3.0 | 0.00 | 1.21 | 1.21 | 86 | 1013.4 |
| 20260508011222 | 72 | 245 | 1.0 | 4.0 | 0.00 | 1.21 | 1.21 | 86 | 1013.2 |
| 20260508010722 | 72 | 51 | 1.0 | 4.0 | 0.00 | 1.21 | 1.21 | 86 | 1013.2 |
| 20260508010220 | 73 | 33 | 1.0 | 3.0 | 0.00 | 1.21 | 1.21 | 86 | 1013.1 |
| 20260508005720 | 73 | 316 | 1.0 | 4.0 | 0.00 | 1.21 | 1.21 | 86 | 1013.2 |
| 20260508005451 | 73 | 79 | 1.0 | 4.0 | 0.00 | 1.21 | 1.21 | 86 | 1013.2 |
| 20260508004720 | 73 | 75 | 1.0 | 3.0 | 0.00 | 1.21 | 1.21 | 86 | 1013.2 |
| 20260508004220 | 73 | 56 | 1.0 | 3.0 | 0.00 | 1.21 | 1.21 | 85 | 1013.3 |
| 20260508003718 | 74 | 351 | 0.0 | 3.0 | 0.00 | 1.21 | 1.21 | 84 | 1013.4 |
| 20260508003218 | 74 | 345 | 1.0 | 3.0 | 0.00 | 1.21 | 1.21 | 84 | 1013.3 |
| 20260508002718 | 74 | 237 | 0.0 | 2.0 | 0.00 | 1.21 | 1.21 | 84 | 1013.4 |
| 20260508002218 | 74 | 11 | 1.0 | 2.0 | 0.00 | 1.21 | 1.21 | 83 | 1013.3 |
| 20260508001718 | 74 | 319 | 1.0 | 3.0 | 0.00 | 1.21 | 1.21 | 83 | 1013.3 |
| 20260508001218 | 74 | 13 | 1.0 | 3.0 | 0.00 | 1.21 | 1.21 | 83 | 1013.2 |
| 20260508000948 | 74 | 51 | 1.0 | 2.0 | 0.00 | 1.21 | 1.21 | 83 | 1013.1 |
| 20260508000219 | 75 | 319 | 0.0 | 3.0 | 0.00 | 1.21 | 1.21 | 82 | 1013.2 |
| 20260507235718 | 75 | 338 | 1.0 | 3.0 | 0.00 | 1.21 | 1.21 | 82 | 1013.1 |
| 20260507235218 | 75 | 65 | 1.0 | 4.0 | 0.00 | 1.21 | 1.21 | 82 | 1013.0 |
| 20260507234716 | 75 | 58 | 1.0 | 4.0 | 0.00 | 1.21 | 1.21 | 82 | 1013.0 |
| 20260507234448 | 75 | 37 | 1.0 | 3.0 | 0.00 | 1.21 | 1.21 | 82 | 1012.9 |
| 20260507233714 | 75 | 65 | 1.0 | 5.0 | 0.00 | 1.21 | 1.21 | 82 | 1013.0 |
| 20260507233214 | 76 | 334 | 2.0 | 5.0 | 0.00 | 1.21 | 1.21 | 81 | 1013.0 |
| 20260507232714 | 76 | 357 | 1.0 | 4.0 | 0.00 | 1.21 | 1.21 | 81 | 1013.0 |
| 20260507232214 | 76 | 332 | 1.0 | 3.0 | 0.00 | 1.21 | 1.21 | 81 | 1013.0 |
| 20260507231714 | 76 | 64 | 1.0 | 4.0 | 0.00 | 1.21 | 1.21 | 81 | 1013.1 |
| 20260507231444 | 76 | 13 | 1.0 | 5.0 | 0.00 | 1.21 | 1.21 | 81 | 1013.1 |
| 20260507230714 | 76 | 35 | 1.0 | 5.0 | 0.00 | 1.21 | 1.21 | 81 | 1013.1 |
| 20260507230446 | 77 | 355 | 1.0 | 2.0 | 0.00 | 1.21 | 1.21 | 81 | 1013.1 |
| 20260507225714 | 77 | 58 | 1.0 | 3.0 | 0.00 | 1.21 | 1.21 | 81 | 1012.9 |
| 20260507225213 | 77 | 359 | 1.0 | 5.0 | 0.00 | 1.21 | 1.21 | 81 | 1012.8 |
| 20260507224714 | 77 | 96 | 1.0 | 5.0 | 0.00 | 1.21 | 1.21 | 80 | 1012.8 |
| 20260507224214 | 77 | 8 | 2.0 | 5.0 | 0.00 | 1.21 | 1.21 | 80 | 1012.7 |
| 20260507223712 | 77 | 342 | 2.0 | 5.0 | 0.00 | 1.21 | 1.21 | 79 | 1012.8 |
| 20260507223444 | 77 | 13 | 1.0 | 4.0 | 0.00 | 1.21 | 1.21 | 79 | 1012.8 |
| 20260507222942 | 77 | 56 | 1.0 | 4.0 | 0.00 | 1.21 | 1.21 | 79 | 1012.6 |
| 20260507222211 | 78 | 352 | 2.0 | 7.0 | 0.00 | 1.21 | 1.21 | 80 | 1012.8 |
| 20260507221712 | 78 | 14 | 2.0 | 7.0 | 0.00 | 1.21 | 1.21 | 80 | 1012.8 |
| 20260507221212 | 78 | 53 | 2.0 | 5.0 | 0.00 | 1.21 | 1.21 | 80 | 1012.9 |
| 20260507220711 | 78 | 34 | 2.0 | 5.0 | 0.00 | 1.21 | 1.21 | 79 | 1012.8 |
| 20260507220210 | 78 | 49 | 1.0 | 6.0 | 0.00 | 1.21 | 1.21 | 80 | 1012.8 |
| 20260507215710 | 78 | 251 | 2.0 | 6.0 | 0.00 | 1.21 | 1.21 | 79 | 1012.8 |
| 20260507215210 | 78 | 191 | 2.0 | 7.0 | 0.00 | 1.21 | 1.21 | 80 | 1012.7 |
| 20260507214710 | 78 | 314 | 1.0 | 7.0 | 0.00 | 1.21 | 1.21 | 79 | 1012.7 |
| 20260507214209 | 79 | 342 | 2.0 | 5.0 | 0.00 | 1.21 | 1.21 | 79 | 1012.7 |
| 20260507213710 | 78 | 79 | 2.0 | 5.0 | 0.00 | 1.21 | 1.21 | 80 | 1012.8 |
| 20260507213208 | 78 | 326 | 1.0 | 6.0 | 0.00 | 1.21 | 1.21 | 80 | 1012.8 |
| 20260507212708 | 78 | 347 | 2.0 | 6.0 | 0.00 | 1.21 | 1.21 | 81 | 1012.7 |
| 20260507212208 | 78 | 25 | 2.0 | 5.0 | 0.00 | 1.21 | 1.21 | 81 | 1012.7 |
| 20260507211708 | 78 | 310 | 2.0 | 5.0 | 0.00 | 1.21 | 1.21 | 80 | 1012.7 |
| 20260507211206 | 79 | 340 | 1.0 | 5.0 | 0.00 | 1.21 | 1.21 | 79 | 1012.6 |
| 20260507210706 | 80 | 257 | 1.0 | 4.0 | 0.00 | 1.21 | 1.21 | 78 | 1012.6 |
| 20260507210206 | 80 | 264 | 1.0 | 4.0 | 0.00 | 1.21 | 1.21 | 79 | 1012.6 |
| 20260507205706 | 81 | 274 | 2.0 | 4.0 | 0.00 | 1.21 | 1.21 | 77 | 1012.7 |
| 20260507205206 | 81 | 231 | 1.0 | 4.0 | 0.00 | 1.22 | 1.21 | 77 | 1012.7 |
| 20260507204935 | 82 | 301 | 1.0 | 3.0 | 0.00 | 1.22 | 1.21 | 78 | 1012.6 |
| 20260507204435 | 81 | 334 | 1.0 | 3.0 | 0.00 | 1.22 | 1.21 | 76 | 1012.6 |
| 20260507203934 | 81 | 257 | 1.0 | 3.0 | 0.00 | 1.22 | 1.21 | 79 | 1012.5 |
| 20260507203203 | 81 | 248 | 1.0 | 3.0 | 0.00 | 1.22 | 1.21 | 79 | 1012.5 |
| 20260507202704 | 80 | 328 | 1.0 | 3.0 | 0.00 | 1.22 | 1.21 | 77 | 1012.6 |
| 20260507202204 | 81 | 347 | 0.0 | 3.0 | 0.00 | 1.22 | 1.21 | 80 | 1012.5 |
| 20260507201704 | 80 | 266 | 0.0 | 2.0 | 0.00 | 1.22 | 1.21 | 80 | 1012.5 |
| 20260507201204 | 79 | 301 | 0.0 | 2.0 | 0.00 | 1.22 | 1.21 | 81 | 1012.6 |
| 20260507200704 | 79 | 317 | 1.0 | 3.0 | 0.00 | 1.22 | 1.21 | 82 | 1012.5 |
| 20260507200204 | 79 | 58 | 1.0 | 4.0 | 0.00 | 1.22 | 1.21 | 81 | 1012.8 |
| 20260507195936 | 79 | 321 | 1.0 | 4.0 | 0.00 | 1.22 | 1.21 | 84 | 1013.0 |
| 20260507195204 | 78 | 75 | 0.0 | 2.0 | 0.00 | 1.22 | 1.21 | 85 | 1012.9 |
| 20260507194702 | 78 | 105 | 0.0 | 2.0 | 0.00 | 1.22 | 1.21 | 86 | 1012.8 |
| 20260507194202 | 77 | 74 | 1.0 | 3.0 | 0.00 | 1.22 | 1.21 | 86 | 1012.9 |
| 20260507193701 | 76 | 85 | 1.0 | 3.0 | 0.00 | 1.22 | 1.21 | 87 | 1012.9 |
| 20260507193201 | 77 | 319 | 1.0 | 2.0 | 0.00 | 1.22 | 1.21 | 87 | 1013.1 |
| 20260507192700 | 76 | 18 | 1.0 | 2.0 | 0.00 | 1.22 | 1.21 | 89 | 1013.2 |
| 20260507192200 | 75 | 120 | 1.0 | 3.0 | 0.00 | 1.26 | 1.21 | 90 | 1013.3 |
| 20260507191702 | 74 | 46 | 0.0 | 1.0 | 0.00 | 1.44 | 1.21 | 91 | 1013.3 |
| 20260507191658 | 75 | 82 | 0.0 | 3.0 | 0.00 | 1.35 | 1.21 | 91 | 1013.3 |
| 20260507190658 | 74 | 46 | 1.0 | 2.0 | 0.00 | 1.46 | 1.21 | 92 | 1013.4 |
| 20260507190157 | 74 | 46 | 1.0 | 2.0 | 0.00 | 1.48 | 1.21 | 93 | 1013.4 |
| 20260507185656 | 73 | 40 | 0.0 | 2.0 | 0.00 | 1.54 | 1.21 | 94 | 1013.2 |
| 20260507185157 | 73 | 65 | 1.0 | 3.0 | 0.00 | 1.56 | 1.21 | 93 | 1013.1 |
| 20260507184656 | 72 | 65 | 1.0 | 3.0 | 0.00 | 1.60 | 1.21 | 93 | 1013.2 |
| 20260507184156 | 72 | 60 | 0.0 | 2.0 | 0.00 | 1.60 | 1.21 | 94 | 1013.2 |
| 20260507183654 | 72 | 60 | 0.0 | 2.0 | 0.00 | 1.61 | 1.21 | 94 | 1013.5 |
| 20260507183153 | 71 | 351 | 1.0 | 3.0 | 0.00 | 1.61 | 1.21 | 94 | 1013.6 |
| 20260507182925 | 71 | 38 | 1.0 | 4.0 | 0.00 | 1.61 | 1.21 | 93 | 1013.5 |
| 20260507182154 | 71 | 66 | 1.0 | 4.0 | 0.00 | 1.62 | 1.21 | 94 | 1013.5 |
| 20260507181654 | 71 | 324 | 2.0 | 5.0 | 0.01 | 1.64 | 1.21 | 94 | 1013.6 |
| 20260507181153 | 71 | 40 | 2.0 | 5.0 | 0.01 | 1.64 | 1.21 | 93 | 1013.7 |
| 20260507180652 | 71 | 46 | 2.0 | 4.0 | 0.01 | 1.65 | 1.21 | 93 | 1013.9 |
| 20260507180152 | 71 | 352 | 2.0 | 5.0 | 0.01 | 1.65 | 1.21 | 93 | 1013.8 |
| 20260507175651 | 71 | 49 | 3.0 | 6.0 | 0.01 | 1.65 | 1.21 | 93 | 1014.0 |
| 20260507175151 | 72 | 91 | 3.0 | 6.0 | 0.01 | 1.65 | 1.21 | 93 | 1013.9 |
| 20260507174652 | 72 | 42 | 3.0 | 9.0 | 0.01 | 1.65 | 1.21 | 93 | 1014.1 |
| 20260507174152 | 72 | 301 | 3.0 | 9.0 | 0.02 | 1.65 | 1.21 | 93 | 1014.0 |
| 20260507173651 | 73 | 54 | 3.0 | 8.0 | 0.04 | 1.65 | 1.21 | 93 | 1014.1 |
| 20260507173152 | 73 | 18 | 3.0 | 5.0 | 0.05 | 1.65 | 1.21 | 93 | 1014.0 |
| 20260507172652 | 73 | 70 | 2.0 | 5.0 | 0.05 | 1.65 | 1.21 | 93 | 1014.1 |
| 20260507172422 | 73 | 358 | 1.0 | 5.0 | 0.05 | 1.65 | 1.21 | 93 | 1014.2 |
| 20260507171650 | 74 | 324 | 1.0 | 3.0 | 0.05 | 1.64 | 1.20 | 93 | 1014.2 |
| 20260507171148 | 74 | 251 | 1.0 | 2.0 | 0.07 | 1.64 | 1.20 | 94 | 1014.1 |
| 20260507170652 | 73 | 210 | 0.0 | 1.0 | 0.21 | 1.64 | 1.20 | 94 | 1014.1 |
| 20260507170648 | 74 | 272 | 0.0 | 2.0 | 0.14 | 1.64 | 1.20 | 94 | 1014.1 |
| 20260507165645 | 73 | 209 | 0.0 | 1.0 | 0.23 | 1.64 | 1.20 | 94 | 1014.1 |
| 20260507165146 | 73 | 209 | 0.0 | 1.0 | 0.27 | 1.64 | 1.20 | 94 | 1014.2 |
| 20260507164645 | 73 | 210 | 0.0 | 1.0 | 0.37 | 1.64 | 1.20 | 94 | 1014.1 |
| 20260507164146 | 73 | 209 | 0.0 | 1.0 | 0.36 | 1.63 | 1.20 | 93 | 1014.1 |
| 20260507163646 | 73 | 210 | 0.0 | 1.0 | 0.37 | 1.61 | 1.17 | 94 | 1014.3 |
| 20260507163146 | 73 | 210 | 0.0 | 1.0 | 0.36 | 1.60 | 1.17 | 94 | 1014.3 |
| 20260507162645 | 73 | 207 | 0.0 | 3.0 | 0.43 | 1.60 | 1.16 | 93 | 1014.2 |
| 20260507162146 | 72 | 215 | 1.0 | 3.0 | 0.52 | 1.60 | 1.16 | 93 | 1014.3 |
| 20260507161917 | 72 | 226 | 2.0 | 6.0 | 0.52 | 1.59 | 1.15 | 93 | 1014.4 |
| 20260507161143 | 72 | 205 | 1.0 | 6.0 | 0.50 | 1.57 | 1.13 | 93 | 1014.4 |
| 20260507160644 | 73 | 208 | 1.0 | 3.0 | 0.43 | 1.50 | 1.08 | 93 | 1014.4 |
| 20260507160143 | 73 | 231 | 1.0 | 5.0 | 0.36 | 1.43 | 1.00 | 93 | 1014.3 |
| 20260507155643 | 73 | 168 | 1.0 | 5.0 | 0.34 | 1.41 | 0.97 | 93 | 1014.1 |
| 20260507155142 | 73 | 210 | 1.0 | 4.0 | 0.30 | 1.37 | 0.93 | 93 | 1014.2 |
| 20260507154639 | 73 | 203 | 1.0 | 4.0 | 0.23 | 1.27 | 0.84 | 93 | 1014.4 |
| 20260507154140 | 73 | 215 | 1.0 | 4.0 | 0.30 | 1.27 | 0.83 | 93 | 1013.9 |
| 20260507153640 | 73 | 218 | 1.0 | 4.0 | 0.36 | 1.24 | 0.80 | 92 | 1014.0 |
| 20260507153139 | 73 | 262 | 1.0 | 4.0 | 0.46 | 1.24 | 0.80 | 92 | 1014.1 |
| 20260507152640 | 73 | 287 | 1.0 | 4.0 | 0.52 | 1.17 | 0.75 | 92 | 1014.0 |
| 20260507152411 | 74 | 322 | 0.0 | 2.0 | 0.61 | 1.08 | 0.64 | 93 | 1014.6 |